USA 342

Last updated on Sat Apr 11 2026 00:02:56 GMT+0000 (Coordinated Universal Time)

1 55263U 23008A 26098.31666115 .00000140 00000+0 00000+0 0 9991 2 55263 0.0110 228.9017 0000318 39.8541 65.6132 1.00267861 11811
UTC large
Height (km)
Speed (km/s)
/
Latitude / Longitude
Inclination (degrees)
Orbital Period (minutes)
Azimuth
Elevation
Range (km)
Doppler Factor

Next 0 passes for location: London (51.5072 / 0.1276)

Sorry there are no passes over London.
USA 342